SUR4140 SAWC-SAEZ

Flight info

Callsign SUR4140
Flight time 2h 41m
Altitude 35000
Route BOKUK UW48 CRV UP664 TRE UT693 BCA UW22 VALOS
Aircraft B738/M-V/N

Departure

Time 2026-04-21 11:16
Airport El Calafate - Commander Armando Tola International Airport (SAWC)

Arrival

Time 2026-04-21 13:57
Airport Ezeiza International Airport - Ministro Pistarini (SAEZ)
Time Latitude Longitude Altitude Speed Heading
2026-04-21 11:05 -50.28339 -72.05385 640 ft 0 kts 175°
2026-04-21 11:07 -50.28336 -72.05385 640 ft 2 kts 175°
2026-04-21 11:07 -50.28320 -72.05387 640 ft 2 kts 175°
2026-04-21 11:08 -50.28304 -72.05390 641 ft 2 kts 175°
2026-04-21 11:08 -50.28288 -72.05390 642 ft 2 kts 228°
2026-04-21 11:08 -50.28280 -72.05369 642 ft 2 kts 253°
2026-04-21 11:08 -50.28277 -72.05349 643 ft 0 kts 262°
2026-04-21 11:12 -50.28277 -72.05354 643 ft 2 kts 265°
2026-04-21 11:12 -50.28248 -72.05390 640 ft 10 kts 335°
2026-04-21 11:12 -50.28152 -72.05412 640 ft 19 kts 355°
2026-04-21 11:12 -50.28027 -72.05353 642 ft 21 kts 66°
2026-04-21 11:13 -50.28005 -72.05134 642 ft 20 kts 84°
2026-04-21 11:13 -50.27994 -72.04921 643 ft 19 kts 86°
2026-04-21 11:13 -50.27985 -72.04714 643 ft 19 kts 85°
2026-04-21 11:13 -50.27973 -72.04514 642 ft 18 kts 84°
2026-04-21 11:14 -50.27961 -72.04313 641 ft 20 kts 85°
2026-04-21 11:14 -50.27948 -72.04082 640 ft 21 kts 84°
2026-04-21 11:14 -50.27934 -72.03855 639 ft 21 kts 85°
2026-04-21 11:14 -50.27957 -72.03643 641 ft 16 kts 91°
2026-04-21 11:15 -50.27937 -72.03600 641 ft 2 kts 349°
2026-04-21 11:15 -50.27928 -72.03624 641 ft 3 kts 293°
2026-04-21 11:15 -50.27928 -72.03697 641 ft 31 kts 269°
2026-04-21 11:15 -50.27975 -72.04553 642 ft 126 kts 265°
2026-04-21 11:16 -50.28083 -72.06357 731 ft 193 kts 264°
2026-04-21 11:16 -50.28251 -72.08481 1599 ft 204 kts 262°
2026-04-21 11:16 -50.28476 -72.10706 2388 ft 215 kts 261°
2026-04-21 11:16 -50.28727 -72.13043 3215 ft 221 kts 260°
2026-04-21 11:17 -50.28919 -72.15476 3939 ft 231 kts 268°
2026-04-21 11:17 -50.28943 -72.18054 4526 ft 241 kts 269°
2026-04-21 11:17 -50.29002 -72.20704 5237 ft 245 kts 267°
2026-04-21 11:17 -50.29116 -72.23368 5973 ft 247 kts 265°
2026-04-21 11:18 -50.29255 -72.26066 6680 ft 250 kts 265°
2026-04-21 11:18 -50.29404 -72.28789 7369 ft 253 kts 265°
2026-04-21 11:18 -50.29562 -72.31575 7927 ft 266 kts 265°
2026-04-21 11:18 -50.29430 -72.34534 8449 ft 281 kts 288°
2026-04-21 11:19 -50.28349 -72.37044 9334 ft 284 kts 321°
2026-04-21 11:19 -50.26555 -72.38277 10223 ft 287 kts 353°
2026-04-21 11:19 -50.24520 -72.37955 10651 ft 310 kts 21°
2026-04-21 11:19 -50.22642 -72.36076 10884 ft 336 kts 40°
2026-04-21 11:20 -50.20865 -72.33519 11158 ft 358 kts 44°
2026-04-21 11:20 -50.19063 -72.30755 11802 ft 366 kts 44°
2026-04-21 11:20 -50.17296 -72.28112 12566 ft 370 kts 43°
2026-04-21 11:20 -50.15367 -72.25429 13357 ft 373 kts 40°
2026-04-21 11:21 -50.13371 -72.22790 14071 ft 378 kts 40°
2026-04-21 11:21 -50.11346 -72.20140 14775 ft 384 kts 40°
2026-04-21 11:21 -50.09291 -72.17441 15480 ft 388 kts 40°
2026-04-21 11:21 -50.07226 -72.14709 16208 ft 391 kts 40°
2026-04-21 11:22 -50.05158 -72.11958 16923 ft 393 kts 40°
2026-04-21 11:22 -50.03070 -72.09172 17594 ft 397 kts 40°
2026-04-21 11:22 -50.01029 -72.06448 18176 ft 402 kts 40°
2026-04-21 11:22 -49.98913 -72.03625 18761 ft 406 kts 40°
2026-04-21 11:23 -49.96764 -72.00761 19369 ft 410 kts 40°
2026-04-21 11:23 -49.94588 -71.97866 19957 ft 413 kts 40°
2026-04-21 11:23 -49.92391 -71.94948 20533 ft 416 kts 40°
2026-04-21 11:23 -49.90198 -71.92004 21097 ft 420 kts 41°
2026-04-21 11:24 -49.87995 -71.88998 21634 ft 423 kts 41°
2026-04-21 11:24 -49.85780 -71.85960 22137 ft 426 kts 41°
2026-04-21 11:24 -49.83558 -71.82911 22626 ft 430 kts 41°
2026-04-21 11:24 -49.81306 -71.79829 23086 ft 433 kts 41°
2026-04-21 11:25 -49.79029 -71.76723 23498 ft 438 kts 41°
2026-04-21 11:25 -49.76742 -71.73612 23990 ft 439 kts 41°
2026-04-21 11:25 -49.74458 -71.70512 24480 ft 441 kts 41°
2026-04-21 11:25 -49.72146 -71.67378 24877 ft 445 kts 41°
2026-04-21 11:26 -49.70596 -71.65280 25147 ft 447 kts 41°
2026-04-21 11:26 -49.68255 -71.62114 25551 ft 450 kts 41°
2026-04-21 11:26 -49.65893 -71.58923 25963 ft 452 kts 41°
2026-04-21 11:26 -49.63589 -71.55814 26344 ft 454 kts 41°
2026-04-21 11:27 -49.61200 -71.52595 26701 ft 457 kts 41°
2026-04-21 11:27 -49.58806 -71.49371 27045 ft 459 kts 41°
2026-04-21 11:27 -49.56390 -71.46126 27404 ft 461 kts 41°
2026-04-21 11:27 -49.53935 -71.42940 27728 ft 464 kts 38°
2026-04-21 11:28 -49.51347 -71.39945 28030 ft 466 kts 36°
2026-04-21 11:28 -49.48696 -71.37064 28334 ft 469 kts 34°
2026-04-21 11:28 -49.46006 -71.34196 28651 ft 471 kts 34°
2026-04-21 11:28 -49.43436 -71.31446 29022 ft 470 kts 35°
2026-04-21 11:29 -49.40697 -71.28484 29500 ft 468 kts 35°
2026-04-21 11:29 -49.38047 -71.25588 29975 ft 466 kts 35°
2026-04-21 11:29 -49.35420 -71.22702 30362 ft 466 kts 35°
2026-04-21 11:29 -49.32780 -71.19796 30652 ft 468 kts 36°
2026-04-21 11:30 -49.30143 -71.16893 31015 ft 467 kts 35°
2026-04-21 11:30 -49.27507 -71.13997 31496 ft 464 kts 35°
2026-04-21 11:30 -49.24891 -71.11130 31927 ft 462 kts 35°
2026-04-21 11:30 -49.22276 -71.08269 32280 ft 462 kts 35°
2026-04-21 11:31 -49.19669 -71.05422 32610 ft 461 kts 35°
2026-04-21 11:31 -49.17057 -71.02572 32965 ft 460 kts 35°
2026-04-21 11:31 -49.14450 -70.99731 33334 ft 459 kts 35°
2026-04-21 11:31 -49.11857 -70.96910 33649 ft 459 kts 35°
2026-04-21 11:32 -49.09252 -70.94079 33934 ft 459 kts 35°
2026-04-21 11:32 -49.06677 -70.91285 34195 ft 460 kts 35°
2026-04-21 11:32 -49.04034 -70.88421 34443 ft 461 kts 35°
2026-04-21 11:32 -49.01413 -70.85583 34719 ft 461 kts 35°
2026-04-21 11:33 -48.98831 -70.82790 35009 ft 461 kts 35°
2026-04-21 11:33 -48.96171 -70.79915 34983 ft 465 kts 35°
2026-04-21 11:33 -48.90902 -70.74231 34984 ft 461 kts 35°
2026-04-21 11:34 -48.85790 -70.68733 35005 ft 455 kts 35°
2026-04-21 11:34 -48.80627 -70.63191 35010 ft 455 kts 35°
2026-04-21 11:35 -48.75490 -70.57691 34997 ft 456 kts 35°
2026-04-21 11:35 -48.70444 -70.51880 34988 ft 456 kts 42°
2026-04-21 11:36 -48.66223 -70.44728 35009 ft 457 kts 53°
2026-04-21 11:36 -48.62496 -70.36922 34997 ft 458 kts 53°
2026-04-21 11:37 -48.58620 -70.29283 35003 ft 459 kts 51°
2026-04-21 11:37 -48.54573 -70.21830 35000 ft 460 kts 50°
2026-04-21 11:38 -48.50503 -70.14387 35003 ft 461 kts 50°
2026-04-21 11:38 -48.46438 -70.06915 35008 ft 461 kts 50°
2026-04-21 11:39 -48.41890 -70.00128 35007 ft 461 kts 34°
2026-04-21 11:39 -48.36446 -69.95055 35002 ft 461 kts 31°
2026-04-21 11:40 -48.31076 -69.89807 34994 ft 461 kts 35°
2026-04-21 11:40 -48.25905 -69.84105 35004 ft 460 kts 36°
2026-04-21 11:41 -48.20731 -69.78458 35001 ft 460 kts 35°
2026-04-21 11:41 -48.15511 -69.72923 35001 ft 460 kts 35°
2026-04-21 11:42 -48.10272 -69.67450 35001 ft 459 kts 34°
2026-04-21 11:42 -48.05027 -69.61995 34995 ft 459 kts 34°
2026-04-21 11:43 -47.99786 -69.56553 35008 ft 459 kts 34°
2026-04-21 11:43 -47.94539 -69.51114 34997 ft 459 kts 34°
2026-04-21 11:44 -47.89283 -69.45678 35005 ft 459 kts 34°
2026-04-21 11:44 -47.84036 -69.40265 34995 ft 459 kts 34°
2026-04-21 11:45 -47.78775 -69.34851 35006 ft 459 kts 34°
2026-04-21 11:45 -47.73520 -69.29457 34995 ft 459 kts 34°
2026-04-21 11:46 -47.68262 -69.24073 35003 ft 459 kts 34°
2026-04-21 11:46 -47.63003 -69.18702 35001 ft 459 kts 34°
2026-04-21 11:47 -47.57740 -69.13341 34996 ft 459 kts 34°
2026-04-21 11:47 -47.52467 -69.07982 35001 ft 459 kts 34°
2026-04-21 11:48 -47.47198 -69.02640 34994 ft 460 kts 34°
2026-04-21 11:48 -47.41956 -68.97339 35003 ft 460 kts 34°
2026-04-21 11:49 -47.36674 -68.92011 34999 ft 460 kts 34°
2026-04-21 11:49 -47.31381 -68.86685 35006 ft 461 kts 34°
2026-04-21 11:50 -47.26087 -68.81370 34999 ft 461 kts 34°
2026-04-21 11:50 -47.20789 -68.76066 34999 ft 460 kts 34°
2026-04-21 11:51 -47.15498 -68.70781 34991 ft 460 kts 34°
2026-04-21 11:51 -47.10213 -68.65514 34995 ft 459 kts 34°
2026-04-21 11:52 -47.04928 -68.60261 35009 ft 458 kts 34°
2026-04-21 11:52 -46.99761 -68.55138 34991 ft 457 kts 34°
2026-04-21 11:53 -46.94494 -68.49928 34992 ft 456 kts 34°
2026-04-21 11:53 -46.89243 -68.44746 35000 ft 455 kts 34°
2026-04-21 11:54 -46.83999 -68.39583 34996 ft 454 kts 34°
2026-04-21 11:54 -46.78749 -68.34427 34998 ft 454 kts 33°
2026-04-21 11:55 -46.73511 -68.29295 35002 ft 454 kts 33°
2026-04-21 11:55 -46.68273 -68.24175 35003 ft 454 kts 33°
2026-04-21 11:56 -46.63054 -68.19086 34999 ft 454 kts 33°
2026-04-21 11:56 -46.57800 -68.13975 35001 ft 455 kts 33°
2026-04-21 11:57 -46.52503 -68.08833 35006 ft 455 kts 33°
2026-04-21 11:57 -46.47230 -68.03728 34995 ft 456 kts 33°
2026-04-21 11:58 -46.41949 -67.98627 35006 ft 457 kts 33°
2026-04-21 11:58 -46.36695 -67.93564 35007 ft 457 kts 33°
2026-04-21 11:59 -46.31399 -67.88472 34996 ft 457 kts 33°
2026-04-21 11:59 -46.26098 -67.83388 35004 ft 457 kts 33°
2026-04-21 12:00 -46.20803 -67.78322 35001 ft 457 kts 33°
2026-04-21 12:00 -46.15823 -67.73567 34999 ft 456 kts 33°
2026-04-21 12:01 -46.10525 -67.68521 35003 ft 456 kts 33°
2026-04-21 12:01 -46.05235 -67.63493 35002 ft 455 kts 33°
2026-04-21 12:02 -45.97303 -67.55977 35004 ft 455 kts 33°
2026-04-21 12:03 -45.92024 -67.50988 34994 ft 454 kts 33°
2026-04-21 12:03 -45.86747 -67.46014 34997 ft 454 kts 33°
2026-04-21 12:04 -45.81465 -67.41043 34995 ft 453 kts 33°
2026-04-21 12:04 -45.76188 -67.36104 34999 ft 453 kts 32°
2026-04-21 12:05 -45.70815 -67.31384 35003 ft 453 kts 31°
2026-04-21 12:05 -45.65403 -67.26767 35006 ft 453 kts 31°
2026-04-21 12:06 -45.59995 -67.22131 35005 ft 453 kts 31°
2026-04-21 12:06 -45.54600 -67.17481 35008 ft 453 kts 31°
2026-04-21 12:07 -45.49202 -67.12828 35005 ft 454 kts 31°
2026-04-21 12:07 -45.43791 -67.08176 34998 ft 454 kts 31°
2026-04-21 12:08 -45.38390 -67.03544 34994 ft 454 kts 31°
2026-04-21 12:08 -45.32970 -66.98907 34996 ft 454 kts 31°
2026-04-21 12:09 -45.27551 -66.94282 34998 ft 454 kts 31°
2026-04-21 12:09 -45.22159 -66.89689 34996 ft 455 kts 31°
2026-04-21 12:10 -45.16737 -66.85081 35005 ft 455 kts 31°
2026-04-21 12:10 -45.11310 -66.80480 35003 ft 455 kts 31°
2026-04-21 12:11 -45.05877 -66.75882 34994 ft 455 kts 31°
2026-04-21 12:11 -45.00443 -66.71294 34998 ft 455 kts 31°
2026-04-21 12:12 -44.95001 -66.66712 34999 ft 455 kts 30°
2026-04-21 12:12 -44.89558 -66.62141 34994 ft 455 kts 30°
2026-04-21 12:13 -44.85032 -66.58347 34997 ft 456 kts 30°
2026-04-21 12:13 -44.79584 -66.53787 35000 ft 456 kts 30°
2026-04-21 12:14 -44.74123 -66.49225 35000 ft 456 kts 30°
2026-04-21 12:14 -44.68664 -66.44676 34996 ft 456 kts 30°
2026-04-21 12:15 -44.63196 -66.40129 34995 ft 457 kts 30°
2026-04-21 12:15 -44.57725 -66.35590 35000 ft 457 kts 30°
2026-04-21 12:16 -44.52252 -66.31059 35003 ft 457 kts 30°
2026-04-21 12:16 -44.46773 -66.26533 34997 ft 457 kts 30°
2026-04-21 12:17 -44.41292 -66.22015 34999 ft 457 kts 30°
2026-04-21 12:17 -44.35800 -66.17499 35007 ft 457 kts 30°
2026-04-21 12:18 -44.30352 -66.13028 34999 ft 457 kts 30°
2026-04-21 12:18 -44.24868 -66.08538 34994 ft 457 kts 30°
2026-04-21 12:19 -44.19376 -66.04050 35000 ft 457 kts 30°
2026-04-21 12:19 -44.13895 -65.99581 34998 ft 457 kts 30°
2026-04-21 12:20 -44.08402 -65.95112 34995 ft 456 kts 30°
2026-04-21 12:20 -44.02921 -65.90661 35007 ft 456 kts 30°
2026-04-21 12:21 -43.97454 -65.86234 35001 ft 456 kts 30°
2026-04-21 12:21 -43.91974 -65.81811 35005 ft 456 kts 30°
2026-04-21 12:22 -43.86485 -65.77389 35003 ft 456 kts 30°
2026-04-21 12:22 -43.81006 -65.72983 34998 ft 455 kts 30°
2026-04-21 12:23 -43.75517 -65.68577 34998 ft 455 kts 30°
2026-04-21 12:23 -43.70036 -65.64187 35000 ft 455 kts 30°
2026-04-21 12:24 -43.64554 -65.59806 35002 ft 455 kts 30°
2026-04-21 12:24 -43.59061 -65.55425 35001 ft 455 kts 30°
2026-04-21 12:25 -43.53579 -65.51063 35000 ft 455 kts 30°
2026-04-21 12:25 -43.48083 -65.46698 34997 ft 455 kts 30°
2026-04-21 12:26 -43.42594 -65.42348 34998 ft 455 kts 30°
2026-04-21 12:26 -43.37104 -65.38006 35005 ft 455 kts 30°
2026-04-21 12:27 -43.31613 -65.33672 35008 ft 455 kts 30°
2026-04-21 12:27 -43.26124 -65.29349 34993 ft 455 kts 30°
2026-04-21 12:28 -43.20637 -65.25035 35006 ft 455 kts 30°
2026-04-21 12:28 -43.15135 -65.20866 35000 ft 454 kts 28°
2026-04-21 12:29 -43.09566 -65.16798 34999 ft 454 kts 28°
2026-04-21 12:29 -43.03996 -65.12730 35000 ft 454 kts 28°
2026-04-21 12:30 -42.98425 -65.08643 35007 ft 454 kts 28°
2026-04-21 12:30 -42.92866 -65.04562 34997 ft 454 kts 28°
2026-04-21 12:31 -42.87295 -65.00480 34994 ft 454 kts 28°
2026-04-21 12:31 -42.81731 -64.96413 35005 ft 454 kts 28°
2026-04-21 12:32 -42.76165 -64.92353 34995 ft 454 kts 28°
2026-04-21 12:32 -42.70596 -64.88300 34997 ft 454 kts 28°
2026-04-21 12:33 -42.65027 -64.84254 35004 ft 454 kts 28°
2026-04-21 12:33 -42.59483 -64.80235 34999 ft 454 kts 28°
2026-04-21 12:34 -42.53915 -64.76206 35000 ft 454 kts 28°
2026-04-21 12:34 -42.48330 -64.72173 35002 ft 454 kts 28°
2026-04-21 12:35 -42.42757 -64.68156 35001 ft 454 kts 28°
2026-04-21 12:35 -42.37176 -64.64146 35000 ft 454 kts 27°
2026-04-21 12:36 -42.31551 -64.60237 35000 ft 454 kts 26°
2026-04-21 12:36 -42.25911 -64.56389 35006 ft 454 kts 26°
2026-04-21 12:37 -42.20272 -64.52539 34996 ft 454 kts 26°
2026-04-21 12:37 -42.14628 -64.48678 34998 ft 454 kts 26°
2026-04-21 12:38 -42.08994 -64.44825 34998 ft 454 kts 26°
2026-04-21 12:38 -42.03362 -64.40980 35005 ft 454 kts 26°
2026-04-21 12:39 -41.97774 -64.37174 34999 ft 454 kts 26°
2026-04-21 12:39 -41.92141 -64.33345 34994 ft 454 kts 26°
2026-04-21 12:40 -41.86508 -64.29524 34996 ft 454 kts 26°
2026-04-21 12:40 -41.80874 -64.25710 35006 ft 454 kts 26°
2026-04-21 12:41 -41.75234 -64.21899 34994 ft 454 kts 26°
2026-04-21 12:41 -41.69599 -64.18099 34997 ft 454 kts 26°
2026-04-21 12:42 -41.63963 -64.14306 34996 ft 454 kts 26°
2026-04-21 12:42 -41.58316 -64.10513 35002 ft 454 kts 26°
2026-04-21 12:43 -41.52674 -64.06731 34996 ft 454 kts 26°
2026-04-21 12:43 -41.47071 -64.02982 35001 ft 454 kts 26°
2026-04-21 12:44 -41.41426 -63.99213 34997 ft 454 kts 26°
2026-04-21 12:44 -41.35782 -63.95451 35006 ft 454 kts 26°
2026-04-21 12:45 -41.30136 -63.91696 34997 ft 454 kts 26°
2026-04-21 12:45 -41.24489 -63.87947 34994 ft 454 kts 26°
2026-04-21 12:46 -41.18837 -63.84202 35000 ft 454 kts 26°
2026-04-21 12:46 -41.13186 -63.80465 35006 ft 454 kts 26°
2026-04-21 12:47 -41.07534 -63.76734 35003 ft 454 kts 26°
2026-04-21 12:47 -41.01869 -63.73002 35006 ft 454 kts 26°
2026-04-21 12:48 -40.96213 -63.69281 35004 ft 454 kts 26°
2026-04-21 12:48 -40.90554 -63.65565 35005 ft 454 kts 26°
2026-04-21 12:49 -40.84972 -63.61633 34996 ft 454 kts 28°
2026-04-21 12:49 -40.79450 -63.57578 35005 ft 454 kts 29°
2026-04-21 12:50 -40.73920 -63.53543 35008 ft 454 kts 28°
2026-04-21 12:50 -40.68367 -63.49538 35002 ft 454 kts 28°
2026-04-21 12:51 -40.62854 -63.45585 35002 ft 454 kts 28°
2026-04-21 12:51 -40.57302 -63.41614 35001 ft 454 kts 28°
2026-04-21 12:52 -40.51751 -63.37649 35001 ft 454 kts 28°
2026-04-21 12:52 -40.46199 -63.33690 35006 ft 454 kts 28°
2026-04-21 12:53 -40.40644 -63.29736 34995 ft 454 kts 28°
2026-04-21 12:53 -40.35082 -63.25784 35007 ft 454 kts 28°
2026-04-21 12:54 -40.29529 -63.21846 35008 ft 454 kts 28°
2026-04-21 12:54 -40.23974 -63.17915 35005 ft 454 kts 28°
2026-04-21 12:55 -40.18418 -63.13990 35000 ft 454 kts 28°
2026-04-21 12:55 -40.12860 -63.10071 34996 ft 454 kts 28°
2026-04-21 12:56 -40.07291 -63.06152 35006 ft 454 kts 28°
2026-04-21 12:56 -40.01723 -63.02240 34996 ft 454 kts 28°
2026-04-21 12:57 -39.96165 -62.98343 35002 ft 454 kts 28°
2026-04-21 12:57 -39.90602 -62.94449 34997 ft 454 kts 28°
2026-04-21 12:58 -39.85037 -62.90562 34998 ft 454 kts 28°
2026-04-21 12:58 -39.79469 -62.86679 34999 ft 454 kts 28°
2026-04-21 12:59 -39.73895 -62.82800 35003 ft 454 kts 28°
2026-04-21 12:59 -39.68328 -62.78932 35001 ft 454 kts 28°
2026-04-21 13:00 -39.62760 -62.75070 34998 ft 454 kts 28°
2026-04-21 13:00 -39.57191 -62.71214 35003 ft 454 kts 28°
2026-04-21 13:01 -39.51612 -62.67359 34995 ft 454 kts 28°
2026-04-21 13:01 -39.46049 -62.63615 34997 ft 454 kts 26°
2026-04-21 13:02 -39.40406 -62.59961 35006 ft 454 kts 26°
2026-04-21 13:02 -39.32855 -62.55077 35004 ft 454 kts 26°
2026-04-21 13:03 -39.26303 -62.50821 34998 ft 454 kts 26°
2026-04-21 13:03 -39.21569 -62.47746 34998 ft 454 kts 26°
2026-04-21 13:04 -39.15970 -62.44116 35002 ft 454 kts 26°
2026-04-21 13:04 -39.10331 -62.40468 35000 ft 454 kts 26°
2026-04-21 13:05 -39.04696 -62.36829 35003 ft 454 kts 26°
2026-04-21 13:05 -38.99092 -62.33217 34997 ft 454 kts 26°
2026-04-21 13:06 -38.93441 -62.29581 34997 ft 454 kts 26°
2026-04-21 13:06 -38.87804 -62.25960 34996 ft 454 kts 26°
2026-04-21 13:07 -38.82159 -62.22340 35004 ft 454 kts 26°
2026-04-21 13:07 -38.76509 -62.18723 35007 ft 454 kts 26°
2026-04-21 13:08 -38.70881 -62.15035 34992 ft 454 kts 30°
2026-04-21 13:08 -38.65567 -62.10675 35006 ft 454 kts 35°
2026-04-21 13:09 -38.60531 -62.05798 34996 ft 454 kts 37°
2026-04-21 13:09 -38.55490 -62.00926 35003 ft 455 kts 36°
2026-04-21 13:10 -38.50390 -61.96221 35002 ft 455 kts 35°
2026-04-21 13:10 -38.45191 -61.91531 35004 ft 455 kts 35°
2026-04-21 13:11 -38.40017 -61.86883 34998 ft 455 kts 35°
2026-04-21 13:11 -38.34843 -61.82234 35001 ft 455 kts 35°
2026-04-21 13:12 -38.29693 -61.77609 35000 ft 456 kts 35°
2026-04-21 13:12 -38.24513 -61.72964 35000 ft 456 kts 35°
2026-04-21 13:13 -38.19329 -61.68324 35004 ft 456 kts 35°
2026-04-21 13:13 -38.14136 -61.63685 34999 ft 456 kts 35°
2026-04-21 13:14 -38.08942 -61.59053 35006 ft 457 kts 35°
2026-04-21 13:14 -38.03735 -61.54416 35006 ft 457 kts 35°
2026-04-21 13:15 -37.98629 -61.49877 35002 ft 457 kts 35°
2026-04-21 13:15 -37.93417 -61.45256 34999 ft 457 kts 34°
2026-04-21 13:16 -37.88209 -61.40651 34997 ft 457 kts 34°
2026-04-21 13:16 -37.83002 -61.36054 35003 ft 456 kts 34°
2026-04-21 13:17 -37.77789 -61.31457 35001 ft 456 kts 34°
2026-04-21 13:17 -37.72589 -61.26879 35001 ft 456 kts 34°
2026-04-21 13:18 -37.67379 -61.22300 34997 ft 456 kts 34°
2026-04-21 13:18 -37.62181 -61.17741 34996 ft 455 kts 34°
2026-04-21 13:19 -37.56981 -61.13187 35006 ft 455 kts 34°
2026-04-21 13:19 -37.51809 -61.08665 34996 ft 455 kts 34°
2026-04-21 13:20 -37.46610 -61.04127 34999 ft 455 kts 34°
2026-04-21 13:20 -37.41408 -60.99595 34996 ft 455 kts 34°
2026-04-21 13:21 -37.36404 -60.95242 35004 ft 455 kts 34°
2026-04-21 13:21 -37.31200 -60.90724 34997 ft 455 kts 34°
2026-04-21 13:22 -37.25995 -60.86212 35001 ft 455 kts 34°
2026-04-21 13:22 -37.20787 -60.81705 35002 ft 455 kts 34°
2026-04-21 13:23 -37.15568 -60.77197 34997 ft 455 kts 34°
2026-04-21 13:23 -37.10353 -60.72699 34996 ft 455 kts 34°
2026-04-21 13:24 -37.05139 -60.68210 35005 ft 455 kts 34°
2026-04-21 13:24 -36.99992 -60.63786 34996 ft 455 kts 34°
2026-04-21 13:25 -36.94717 -60.59260 34997 ft 455 kts 34°
2026-04-21 13:25 -36.89494 -60.54785 34997 ft 455 kts 34°
2026-04-21 13:26 -36.84271 -60.50319 35008 ft 455 kts 34°
2026-04-21 13:26 -36.79045 -60.45855 34996 ft 455 kts 34°
2026-04-21 13:27 -36.73810 -60.41393 35006 ft 455 kts 34°
2026-04-21 13:27 -36.68586 -60.36950 35002 ft 455 kts 34°
2026-04-21 13:28 -36.63346 -60.32503 35004 ft 455 kts 34°
2026-04-21 13:28 -36.60730 -60.30285 34765 ft 458 kts 34°
2026-04-21 13:28 -36.58129 -60.28080 34347 ft 455 kts 34°
2026-04-21 13:29 -36.55505 -60.25857 33892 ft 448 kts 34°
2026-04-21 13:29 -36.52973 -60.23714 33457 ft 443 kts 34°
2026-04-21 13:29 -36.50436 -60.21571 33021 ft 438 kts 34°
2026-04-21 13:29 -36.47930 -60.19465 32598 ft 433 kts 34°
2026-04-21 13:30 -36.45444 -60.17381 32175 ft 428 kts 34°
2026-04-21 13:30 -36.42993 -60.15328 31758 ft 424 kts 34°
2026-04-21 13:30 -36.40558 -60.13291 31344 ft 419 kts 34°
2026-04-21 13:30 -36.38156 -60.11282 30934 ft 415 kts 34°
2026-04-21 13:31 -36.35769 -60.09286 30530 ft 411 kts 34°
2026-04-21 13:31 -36.33411 -60.07315 30130 ft 407 kts 34°
2026-04-21 13:31 -36.31077 -60.05365 29728 ft 403 kts 33°
2026-04-21 13:31 -36.28776 -60.03445 29334 ft 399 kts 33°
2026-04-21 13:32 -36.26525 -60.01566 28930 ft 395 kts 33°
2026-04-21 13:32 -36.24257 -59.99676 28521 ft 392 kts 33°
2026-04-21 13:32 -36.22003 -59.97798 28125 ft 388 kts 33°
2026-04-21 13:32 -36.19772 -59.95941 27720 ft 385 kts 33°
2026-04-21 13:33 -36.17558 -59.94099 27332 ft 381 kts 33°
2026-04-21 13:33 -36.15368 -59.92278 26943 ft 379 kts 33°
2026-04-21 13:33 -36.13180 -59.90461 26552 ft 377 kts 33°
2026-04-21 13:33 -36.11012 -59.88661 26169 ft 378 kts 33°
2026-04-21 13:34 -36.08797 -59.86824 25787 ft 388 kts 33°
2026-04-21 13:34 -36.06534 -59.84948 25373 ft 390 kts 33°
2026-04-21 13:34 -36.04291 -59.83090 24958 ft 386 kts 33°
2026-04-21 13:34 -36.02069 -59.81250 24514 ft 383 kts 33°
2026-04-21 13:35 -35.99873 -59.79433 24016 ft 382 kts 33°
2026-04-21 13:35 -35.97673 -59.77614 23525 ft 380 kts 33°
2026-04-21 13:35 -35.95482 -59.75805 23083 ft 377 kts 33°
2026-04-21 13:35 -35.93314 -59.74014 22649 ft 374 kts 33°
2026-04-21 13:36 -35.91160 -59.72236 22203 ft 371 kts 33°
2026-04-21 13:36 -35.89019 -59.70472 21753 ft 369 kts 33°
2026-04-21 13:36 -35.86893 -59.68719 21308 ft 366 kts 33°
2026-04-21 13:36 -35.84775 -59.66976 20829 ft 365 kts 33°
2026-04-21 13:37 -35.82674 -59.65246 20428 ft 361 kts 33°
2026-04-21 13:37 -35.80595 -59.63537 20045 ft 358 kts 33°
2026-04-21 13:37 -35.78537 -59.61845 19666 ft 354 kts 33°
2026-04-21 13:37 -35.76527 -59.60194 19296 ft 350 kts 33°
2026-04-21 13:38 -35.74510 -59.58539 18928 ft 347 kts 33°
2026-04-21 13:38 -35.72512 -59.56899 18563 ft 343 kts 33°
2026-04-21 13:38 -35.70534 -59.55278 18200 ft 340 kts 33°
2026-04-21 13:38 -35.68576 -59.53673 17844 ft 337 kts 33°
2026-04-21 13:39 -35.66636 -59.52084 17489 ft 334 kts 33°
2026-04-21 13:39 -35.64709 -59.50507 17135 ft 331 kts 33°
2026-04-21 13:39 -35.62801 -59.48946 16786 ft 328 kts 33°
2026-04-21 13:39 -35.60905 -59.47397 16439 ft 326 kts 33°
2026-04-21 13:40 -35.59027 -59.45862 16098 ft 323 kts 33°
2026-04-21 13:40 -35.57161 -59.44338 15748 ft 321 kts 33°
2026-04-21 13:40 -35.55311 -59.42828 15410 ft 318 kts 33°
2026-04-21 13:40 -35.53474 -59.41329 15070 ft 316 kts 33°
2026-04-21 13:41 -35.51650 -59.39842 14734 ft 314 kts 33°
2026-04-21 13:41 -35.49835 -59.38362 14395 ft 312 kts 33°
2026-04-21 13:41 -35.48026 -59.36890 14067 ft 313 kts 33°
2026-04-21 13:41 -35.46207 -59.35410 13735 ft 315 kts 33°
2026-04-21 13:42 -35.44393 -59.33864 13399 ft 320 kts 36°
2026-04-21 13:42 -35.42593 -59.32221 13054 ft 324 kts 37°
2026-04-21 13:42 -35.40807 -59.30551 12698 ft 322 kts 37°
2026-04-21 13:42 -35.39038 -59.28892 12345 ft 318 kts 37°
2026-04-21 13:43 -35.37288 -59.27255 12003 ft 315 kts 37°
2026-04-21 13:43 -35.35546 -59.25632 11660 ft 312 kts 37°
2026-04-21 13:43 -35.33827 -59.24036 11328 ft 309 kts 37°
2026-04-21 13:43 -35.32118 -59.22455 10986 ft 306 kts 37°
2026-04-21 13:44 -35.30429 -59.20894 10658 ft 304 kts 37°
2026-04-21 13:44 -35.28751 -59.19346 10432 ft 298 kts 37°
2026-04-21 13:44 -35.27123 -59.17836 10272 ft 288 kts 33°
2026-04-21 13:44 -35.25561 -59.16388 10200 ft 278 kts 33°
2026-04-21 13:45 -35.24040 -59.14988 10090 ft 270 kts 33°
2026-04-21 13:45 -35.22554 -59.13623 9892 ft 266 kts 33°
2026-04-21 13:45 -35.21081 -59.12274 9625 ft 264 kts 33°
2026-04-21 13:45 -35.19621 -59.10937 9356 ft 261 kts 33°
2026-04-21 13:46 -35.18173 -59.09610 9092 ft 259 kts 33°
2026-04-21 13:46 -35.16736 -59.08294 8829 ft 257 kts 33°
2026-04-21 13:46 -35.15299 -59.06977 8575 ft 260 kts 33°
2026-04-21 13:46 -35.13832 -59.05637 8320 ft 266 kts 33°
2026-04-21 13:47 -35.12334 -59.04267 8045 ft 271 kts 34°
2026-04-21 13:47 -35.10833 -59.02892 7756 ft 269 kts 34°
2026-04-21 13:47 -35.09343 -59.01527 7477 ft 267 kts 34°
2026-04-21 13:47 -35.07867 -59.00176 7205 ft 264 kts 34°
2026-04-21 13:48 -35.06401 -58.98834 6927 ft 262 kts 34°
2026-04-21 13:48 -35.04943 -58.97501 6688 ft 261 kts 35°
2026-04-21 13:48 -35.03468 -58.96153 6389 ft 270 kts 34°
2026-04-21 13:48 -35.01966 -58.94783 6094 ft 275 kts 34°
2026-04-21 13:49 -35.00446 -58.93395 5809 ft 272 kts 34°
2026-04-21 13:49 -34.98944 -58.92023 5470 ft 267 kts 35°
2026-04-21 13:49 -34.97480 -58.90687 5196 ft 259 kts 35°
2026-04-21 13:49 -34.96062 -58.89393 4927 ft 251 kts 35°
2026-04-21 13:50 -34.94691 -58.88141 4680 ft 241 kts 35°
2026-04-21 13:50 -34.93380 -58.86946 4459 ft 228 kts 35°
2026-04-21 13:50 -34.92149 -58.85824 4211 ft 214 kts 35°
2026-04-21 13:50 -34.90989 -58.84767 3971 ft 204 kts 35°
2026-04-21 13:51 -34.89875 -58.83753 3880 ft 196 kts 35°
2026-04-21 13:51 -34.89155 -58.83099 3825 ft 193 kts 36°
2026-04-21 13:51 -34.88085 -58.82126 3738 ft 191 kts 35°
2026-04-21 13:51 -34.87042 -58.81179 3684 ft 193 kts 35°
2026-04-21 13:52 -34.85970 -58.80206 3598 ft 189 kts 35°
2026-04-21 13:52 -34.84930 -58.79259 3425 ft 185 kts 36°
2026-04-21 13:52 -34.83911 -58.78333 3215 ft 180 kts 36°
2026-04-21 13:52 -34.82894 -58.77411 3031 ft 183 kts 36°
2026-04-21 13:53 -34.81874 -58.76486 2819 ft 183 kts 36°
2026-04-21 13:53 -34.80872 -58.75578 2621 ft 176 kts 36°
2026-04-21 13:53 -34.79891 -58.74689 2416 ft 176 kts 36°
2026-04-21 13:53 -34.79045 -58.73617 2252 ft 180 kts 64°
2026-04-21 13:54 -34.78887 -58.72148 2216 ft 179 kts 99°
2026-04-21 13:54 -34.79197 -58.70696 2201 ft 176 kts 102°
2026-04-21 13:54 -34.79472 -58.69267 2205 ft 172 kts 100°
2026-04-21 13:54 -34.79713 -58.67836 2059 ft 175 kts 99°
2026-04-21 13:55 -34.79955 -58.66394 1837 ft 172 kts 99°
2026-04-21 13:55 -34.80193 -58.65001 1639 ft 164 kts 100°
2026-04-21 13:55 -34.80424 -58.63678 1393 ft 156 kts 100°
2026-04-21 13:55 -34.80645 -58.62423 1229 ft 149 kts 101°
2026-04-21 13:56 -34.80865 -58.61177 1023 ft 151 kts 101°
2026-04-21 13:56 -34.81085 -58.59953 880 ft 147 kts 100°
2026-04-21 13:56 -34.81298 -58.58759 672 ft 145 kts 102°
2026-04-21 13:56 -34.81515 -58.57541 488 ft 150 kts 103°
2026-04-21 13:57 -34.81735 -58.56310 285 ft 148 kts 103°
2026-04-21 13:57 -34.81952 -58.55100 106 ft 144 kts 102°
2026-04-21 13:57 -34.82160 -58.53933 70 ft 136 kts 102°
2026-04-21 13:57 -34.82283 -58.53205 70 ft 46 kts 102°
2026-04-21 13:58 -34.82328 -58.52967 64 ft 15 kts 103°
2026-04-21 13:58 -34.82285 -58.52886 68 ft 10 kts
2026-04-21 13:58 -34.82221 -58.52912 72 ft 10 kts 340°
2026-04-21 13:58 -34.82159 -58.52939 68 ft 9 kts 340°
2026-04-21 13:59 -34.82092 -58.52967 70 ft 12 kts 341°
2026-04-21 13:59 -34.82028 -58.53030 72 ft 12 kts 294°
2026-04-21 13:59 -34.82006 -58.53130 70 ft 12 kts 284°
2026-04-21 13:59 -34.81983 -58.53236 74 ft 15 kts 284°
2026-04-21 14:00 -34.81956 -58.53367 74 ft 16 kts 284°
2026-04-21 14:00 -34.81930 -58.53495 74 ft 15 kts 284°
2026-04-21 14:00 -34.81897 -58.53615 72 ft 16 kts 309°
2026-04-21 14:00 -34.81775 -58.53702 71 ft 24 kts 329°
2026-04-21 14:01 -34.81680 -58.53853 73 ft 23 kts 304°
2026-04-21 14:01 -34.81590 -58.53968 74 ft 0 kts 311°